When you browse on this site, cookies collect data to enhance your experience and personalize the content and advertising you see.
Visit our Privacy Policy to learn more. By continuing to use the site, you agree to this use of cookies and data.
  • In Latvia
  • List of Countries
  • For 7 days
  • Water Temperature
  • Satellite Maps
  • Weather Map
  • Weather Widgets
  • user-avatar
    Login

    Hourly Weather Morpeth

    Today, 18 December, Tuesday

    Time Temperature Precipitation Wind Pressure Humidity
    00:00 +6°C° 0 mm 8 mps 751 mmHg 89%
    01:00 +6°C° 0 mm 8 mps 751 mmHg 88%
    02:00 +6°C° 0 mm 8 mps 751 mmHg 88%
    03:00 +7°C° 0 mm 9 mps 750 mmHg 87%
    04:00 +7°C° 0 mm 9 mps 750 mmHg 86%
    05:00 +7°C° 0 mm 9 mps 749 mmHg 85%
    06:00 +7°C° 0 mm 8 mps 748 mmHg 86%
    07:00 +7°C° 0.2 mm 10 mps 747 mmHg 85%
    08:00 +7°C° 0.2 mm 11 mps 746 mmHg 84%
    09:00 +8°C° 0.2 mm 12 mps 746 mmHg 83%
    10:00 +8°C° 0.3 mm 12 mps 745 mmHg 82%
    11:00 +8°C° 0.3 mm 12 mps 745 mmHg 81%
    12:00 +8°C° 0.3 mm 12 mps 745 mmHg 80%
    13:00 +7°C° 0.4 mm 12 mps 744 mmHg 80%
    14:00 +7°C° 0.4 mm 11 mps 744 mmHg 81%
    15:00 +7°C° 0.4 mm 11 mps 743 mmHg 81%
    16:00 +6°C° 0.7 mm 10 mps 743 mmHg 83%
    17:00 +6°C° 0.7 mm 9 mps 743 mmHg 85%
    18:00 +6°C° 0.7 mm 8 mps 742 mmHg 87%
    19:00 +6°C° 0.5 mm 7 mps 742 mmHg 88%
    20:00 +5°C° 0.5 mm 6 mps 742 mmHg 89%
    21:00 +6°C° 0.5 mm 5 mps 742 mmHg 89%
    22:00 +6°C° 0 mm 5 mps 742 mmHg 89%
    23:00 +6°C° 0 mm 5 mps 742 mmHg 89%

    Tomorrow, 19 December, Wednesday

    Time Temperature Precipitation Wind Pressure Humidity
    00:00 +6°C° 0 mm 5 mps 742 mmHg 89%
    01:00 +5°C° 0 mm 5 mps 742 mmHg 89%
    02:00 +5°C° 0 mm 5 mps 743 mmHg 89%
    03:00 +5°C° 0 mm 5 mps 743 mmHg 89%
    04:00 +5°C° 0 mm 5 mps 743 mmHg 89%
    05:00 +5°C° 0 mm 5 mps 743 mmHg 89%
    06:00 +3°C° 0 mm 5 mps 744 mmHg 89%
    07:00 +3°C° 0 mm 5 mps 744 mmHg 89%
    08:00 +3°C° 0 mm 5 mps 744 mmHg 89%
    09:00 +3°C° 0 mm 5 mps 745 mmHg 88%
    10:00 +5°C° 0 mm 5 mps 745 mmHg 86%
    11:00 +5°C° 0 mm 5 mps 745 mmHg 84%
    12:00 +6°C° 0 mm 5 mps 745 mmHg 81%
    13:00 +6°C° 0 mm 5 mps 744 mmHg 82%
    14:00 +5°C° 0 mm 5 mps 744 mmHg 82%
    15:00 +5°C° 0 mm 5 mps 744 mmHg 82%
    16:00 +4°C° 0 mm 6 mps 744 mmHg 83%
    17:00 +4°C° 0 mm 6 mps 743 mmHg 84%
    18:00 +3°C° 0 mm 6 mps 743 mmHg 85%
    19:00 +4°C° 0.1 mm 6 mps 743 mmHg 85%
    20:00 +4°C° 0.1 mm 6 mps 743 mmHg 86%
    21:00 +4°C° 0.1 mm 7 mps 743 mmHg 86%
    22:00 +4°C° 0.1 mm 6 mps 743 mmHg 87%
    23:00 +4°C° 0.1 mm 6 mps 743 mmHg 88%

    Day after tomorrow, 20 December, Thursday

    Time Temperature Precipitation Wind Pressure Humidity
    00:00 +3°C° 0.1 mm 5 mps 743 mmHg 89%
    01:00 +3°C° 0.1 mm 5 mps 743 mmHg 89%
    02:00 +3°C° 0.1 mm 5 mps 743 mmHg 89%
    03:00 +3°C° 0.1 mm 5 mps 743 mmHg 89%
    04:00 +3°C° 0 mm 5 mps 743 mmHg 89%
    05:00 +3°C° 0 mm 5 mps 743 mmHg 90%
    06:00 +3°C° 0 mm 5 mps 743 mmHg 90%
    07:00 +3°C° 0.1 mm 5 mps 743 mmHg 90%
    08:00 +5°C° 0.1 mm 5 mps 744 mmHg 90%
    09:00 +5°C° 0.1 mm 5 mps 744 mmHg 89%
    10:00 +5°C° 0 mm 5 mps 744 mmHg 86%
    11:00 +5°C° 0 mm 6 mps 744 mmHg 83%
    12:00 +5°C° 0 mm 6 mps 745 mmHg 81%
    13:00 +5°C° 0.1 mm 6 mps 745 mmHg 80%
    14:00 +5°C° 0.1 mm 6 mps 745 mmHg 80%
    15:00 +5°C° 0.1 mm 6 mps 745 mmHg 80%
    16:00 +4°C° 0 mm 6 mps 745 mmHg 82%
    17:00 +4°C° 0 mm 6 mps 746 mmHg 84%
    18:00 +5°C° 0 mm 5 mps 746 mmHg 86%
    19:00 +3°C° 0 mm 5 mps 746 mmHg 87%
    20:00 +3°C° 0 mm 5 mps 746 mmHg 87%
    21:00 +3°C° 0 mm 5 mps 746 mmHg 88%
    22:00 +3°C° 0 mm 5 mps 745 mmHg 89%
    23:00 +4°C° 0 mm 4 mps 745 mmHg 90%

    21 December, Friday

    Time Temperature Precipitation Wind Pressure Humidity
    00:00 +4°C° 0 mm 4 mps 744 mmHg 90%
    01:00 +4°C° 0.3 mm 4 mps 743 mmHg 91%
    02:00 +3°C° 0.3 mm 5 mps 742 mmHg 91%
    03:00 +3°C° 0.3 mm 5 mps 740 mmHg 91%
    04:00 +3°C° 1.5 mm 5 mps 739 mmHg 92%
    05:00 +4°C° 1.5 mm 6 mps 738 mmHg 93%
    06:00 +4°C° 1.5 mm 6 mps 737 mmHg 94%
    07:00 +5°C° 0.4 mm 6 mps 737 mmHg 92%
    08:00 +5°C° 0.4 mm 6 mps 737 mmHg 91%
    09:00 +7°C° 0.4 mm 6 mps 737 mmHg 89%
    10:00 +6°C° 0.1 mm 7 mps 737 mmHg 87%
    11:00 +6°C° 0.1 mm 8 mps 737 mmHg 84%
    12:00 +7°C° 0.1 mm 9 mps 737 mmHg 81%
    13:00 +7°C° 0.1 mm 10 mps 738 mmHg 80%
    14:00 +7°C° 0.1 mm 11 mps 738 mmHg 79%
    15:00 +7°C° 0.1 mm 12 mps 739 mmHg 78%
    16:00 +7°C° 0 mm 12 mps 740 mmHg 78%
    17:00 +5°C° 0 mm 12 mps 740 mmHg 77%
    18:00 +6°C° 0 mm 11 mps 741 mmHg 76%
    19:00 +6°C° 0 mm 10 mps 742 mmHg 77%
    20:00 +5°C° 0 mm 9 mps 743 mmHg 78%
    21:00 +5°C° 0 mm 8 mps 744 mmHg 79%
    22:00 +4°C° 0 mm 7 mps 744 mmHg 82%
    23:00 +4°C° 0 mm 6 mps 744 mmHg 85%

    22 December, Saturday

    Time Temperature Precipitation Wind Pressure Humidity
    00:00 +5°C° 0 mm 5 mps 744 mmHg 88%
    01:00 +5°C° 0.3 mm 4 mps 743 mmHg 90%
    02:00 +5°C° 0.3 mm 4 mps 743 mmHg 91%
    03:00 +5°C° 0.3 mm 3 mps 743 mmHg 93%
    04:00 +5°C° 0.9 mm 3 mps 743 mmHg 93%
    05:00 +5°C° 0.9 mm 3 mps 743 mmHg 94%
    06:00 +5°C° 0.9 mm 3 mps 743 mmHg 94%
    07:00 +5°C° 0.3 mm 4 mps 744 mmHg 91%
    08:00 +5°C° 0.3 mm 5 mps 745 mmHg 89%
    09:00 +5°C° 0.3 mm 6 mps 746 mmHg 87%
    10:00 +5°C° 0 mm 7 mps 747 mmHg 84%
    11:00 +5°C° 0 mm 7 mps 747 mmHg 81%
    12:00 +5°C° 0 mm 8 mps 748 mmHg 78%
    13:00 +5°C° 0 mm 8 mps 748 mmHg 77%
    14:00 +5°C° 0 mm 8 mps 748 mmHg 76%
    15:00 +5°C° 0 mm 9 mps 749 mmHg 75%
    16:00 +5°C° 0 mm 9 mps 749 mmHg 75%
    17:00 +3°C° 0 mm 9 mps 750 mmHg 76%
    18:00 +3°C° 0 mm 9 mps 750 mmHg 76%
    19:00 +3°C° 0 mm 9 mps 751 mmHg 77%
    20:00 +3°C° 0 mm 9 mps 751 mmHg 77%
    21:00 +3°C° 0 mm 9 mps 752 mmHg 78%
    22:00 +3°C° 0 mm 9 mps 752 mmHg 78%
    23:00 +2°C° 0 mm 8 mps 753 mmHg 79%

    23 December, Sunday

    Time Temperature Precipitation Wind Pressure Humidity
    00:00 +2°C° 0 mm 8 mps 753 mmHg 79%
    01:00 +2°C° 0 mm 8 mps 753 mmHg 80%
    02:00 +2°C° 0 mm 8 mps 754 mmHg 81%
    03:00 +2°C° 0 mm 8 mps 754 mmHg 82%
    04:00 +2°C° 0 mm 8 mps 754 mmHg 83%
    05:00 +3°C° 0 mm 7 mps 755 mmHg 84%
    06:00 +3°C° 0 mm 7 mps 755 mmHg 85%
    07:00 +3°C° 0 mm 6 mps 755 mmHg 87%
    08:00 +3°C° 0 mm 5 mps 756 mmHg 88%
    09:00 +3°C° 0 mm 4 mps 756 mmHg 90%
    10:00 +4°C° 0 mm 4 mps 756 mmHg 89%
    11:00 +5°C° 0 mm 4 mps 756 mmHg 88%
    12:00 +6°C° 0 mm 4 mps 756 mmHg 88%
    13:00 +6°C° 0.1 mm 4 mps 756 mmHg 89%
    14:00 +6°C° 0.1 mm 4 mps 755 mmHg 90%
    15:00 +7°C° 0.1 mm 3 mps 755 mmHg 91%
    16:00 +6°C° 0.2 mm 4 mps 754 mmHg 92%
    17:00 +6°C° 0.2 mm 4 mps 754 mmHg 92%
    18:00 +5°C° 0.2 mm 5 mps 753 mmHg 93%
    19:00 +6°C° 0.3 mm 5 mps 753 mmHg 93%
    20:00 +6°C° 0.3 mm 5 mps 752 mmHg 93%
    21:00 +6°C° 0.3 mm 5 mps 752 mmHg 93%
    22:00 +6°C° 0 mm 5 mps 751 mmHg 93%
    23:00 +6°C° 0 mm 4 mps 751 mmHg 94%
    Show more